Location: Newark
(58.8333°N, 23.5833°E)
Time: 12:55:30
(UTC+00:00)

NOAA 18 - Visible Passes

Search period start: 08 December 2019 00:00
Search period end: 18 December 2019 00:00
Orbit: 840 x 862 km, 99.1° (Epoch: 07 December)

Date Brightness Start Highest point End Pass type
(mag) Time Alt. Az. Time Alt. Az. Time Alt. Az.
08 Dec 7.0 15:17:21 12° NE 15:18:02 12° NNE 15:19:57 10° N visible
08 Dec 6.6 16:59:22 23° NNE 16:59:22 23° NNE 17:01:56 10° N visible
08 Dec 7.3 18:41:23 20° NNW 18:41:23 20° NNW 18:43:02 10° NNW visible
09 Dec 7.1 15:05:28 10° NE 15:06:30 11° NNE 15:07:46 10° NNE visible
09 Dec 6.6 16:47:28 22° NNE 16:47:28 22° NNE 16:50:05 10° N visible
09 Dec 7.1 18:29:29 21° NNW 18:29:29 21° NNW 18:31:15 10° NNW visible
10 Dec 6.7 16:35:34 21° NNE 16:35:34 21° NNE 16:38:12 10° N visible
10 Dec 7.0 18:17:34 22° NNW 18:17:34 22° NNW 18:19:27 10° NNW visible
10 Dec 8.1 19:59:35 11° NW 19:59:35 11° NW 19:59:48 10° NW visible
11 Dec 6.7 16:23:40 19° NNE 16:23:40 19° NNE 16:26:19 10° N visible
11 Dec 6.9 18:05:40 23° NNW 18:05:40 23° NNW 18:07:39 10° NNW visible
11 Dec 8.0 19:47:40 12° NW 19:47:40 12° NW 19:48:09 10° NNW visible
12 Dec 7.8 06:10:30 10° NE 06:13:23 14° E 06:16:17 10° ESE visible
12 Dec 6.7 16:11:45 18° NNE 16:11:45 18° NNE 16:14:25 10° N visible
12 Dec 6.9 17:53:45 23° N 17:53:45 23° N 17:55:50 10° NNW visible
12 Dec 7.9 19:35:46 13° NNW 19:35:46 13° NNW 19:36:28 10° NNW visible
13 Dec 8.0 05:59:25 10° ENE 06:01:22 12° ENE 06:03:20 10° E visible
13 Dec 6.8 15:59:50 17° NNE 15:59:50 17° NNE 16:02:31 10° N visible
13 Dec 6.8 17:41:51 24° N 17:41:51 24° N 17:44:01 10° NNW visible
13 Dec 7.7 19:23:51 15° NNW 19:23:51 15° NNW 19:24:47 10° NNW visible
14 Dec 6.9 15:47:55 15° NNE 15:47:55 15° NNE 15:50:35 10° N visible
14 Dec 6.7 17:29:56 24° N 17:29:56 24° N 17:32:11 10° NNW visible
14 Dec 7.6 19:11:56 16° NNW 19:11:56 16° NNW 19:13:03 10° NNW visible
15 Dec 6.9 15:36:00 14° NNE 15:36:00 14° NNE 15:38:37 10° N visible
15 Dec 6.7 17:18:00 23° N 17:18:00 23° N 17:20:21 10° N visible
15 Dec 7.5 19:00:00 18° NNW 19:00:00 18° NNW 19:01:19 10° NNW visible
16 Dec 7.0 15:24:04 12° NNE 15:24:26 12° NNE 15:26:37 10° N visible
16 Dec 6.7 17:06:05 23° N 17:06:05 23° N 17:08:30 10° N visible
16 Dec 7.4 18:48:05 19° NNW 18:48:05 19° NNW 18:49:33 10° NNW visible
17 Dec 7.0 15:12:08 11° NE 15:12:53 11° NNE 15:14:32 10° N visible
17 Dec 6.7 16:54:09 22° NNE 16:54:09 22° NNE 16:56:38 10° N visible
17 Dec 7.2 18:36:09 20° NNW 18:36:09 20° NNW 18:37:47 10° NNW visible
